Location: Usti nad Labem
(50.6667°N, 14.0333°E)
Time: 16:28:52
(UTC+02:00)

ISS - Visible Passes

Search period start: 26 September 2018 00:00
Search period end: 06 October 2018 00:00
Orbit: 403 x 408 km, 51.6° (Epoch: 26 September)

Date Brightness Start Highest point End Pass type
(mag) Time Alt. Az. Time Alt. Az. Time Alt. Az.
26 Sep -3.6 20:11:41 10° SW 20:14:54 54° SSE 20:16:23 28° E visible
26 Sep -1.1 21:48:05 10° W 21:49:04 18° W 21:49:04 18° W visible
27 Sep -3.0 19:20:01 10° SW 19:23:05 37° SSE 19:26:10 10° E visible
27 Sep -3.7 20:56:08 10° W 20:59:15 76° WNW 20:59:15 76° WNW visible
28 Sep -3.9 20:04:13 10° WSW 20:07:32 82° SSE 20:09:23 24° ENE visible
28 Sep -1.3 21:40:49 10° W 21:42:03 21° WNW 21:42:03 21° WNW visible
29 Sep -3.6 19:12:21 10° WSW 19:15:37 62° SSE 19:18:54 10° ENE visible
29 Sep -3.7 20:48:51 10° W 20:52:07 72° N 20:52:07 72° N visible
30 Sep -3.8 19:56:51 10° W 20:00:10 78° N 20:02:08 22° ENE visible
30 Sep -1.3 21:33:27 10° WNW 21:34:48 22° WNW 21:34:48 22° WNW visible
01 Oct -3.8 20:41:29 10° W 20:44:47 76° N 20:44:47 76° N visible
02 Oct -3.7 19:49:29 10° W 19:52:47 72° N 19:54:46 22° E visible
02 Oct -1.4 21:26:02 10° WNW 21:27:26 23° W 21:27:26 23° W visible
03 Oct -4.0 20:34:03 10° WNW 20:37:22 85° SSW 20:37:24 84° SSE visible
04 Oct -3.8 19:42:02 10° W 19:45:21 80° N 19:47:23 21° E visible
04 Oct -1.4 21:18:38 10° W 21:20:03 22° W 21:20:03 22° W visible
05 Oct -3.6 20:26:33 10° WNW 20:29:49 57° SSW 20:30:03 55° S visible
